Weather History for Oxford, CT

Change the Weather History Date:

Monday, February 11, 2013

  Actual Average Record
Temperature  
Mean Temperature 34 °F -  
Max Temperature 44 °F 34 °F 59 °F (2009)
Min Temperature 24 °F 19 °F 6 °F (2007)
Degree Days  
Heating Degree Days 31    
Moisture  
Dew Point 29 °F    
Average Humidity 78    
Maximum Humidity 93    
Minimum Humidity 47    
Precipitation  
Precipitation 0.01 in - - ()
Sea Level Pressure  
Sea Level Pressure 30.00 in    
Wind  
Wind Speed 6 mph (SSW)    
Max Wind Speed 12 mph    
Max Gust Speed -    
Visibility 5 miles    
Events Fog , Rain    
Averages and records for this station are not official NWS values.
T = Trace of Precipitation, MM = Missing Value Source: NWS Daily Summary

Daily Weather History Graph

Daily Weather History Graph

Search for Another Location

Airport:

Trip Planner

Search our weather history database for the weather conditions in past years. The results will help you decide how hot, cold, wet, or windy it might be!

Date:

Astronomy

Feb. 11, 2013 Rise Set
Actual Time 6:52 AM EST 5:21 PM EST
Civil Twilight 6:23 AM EST 5:50 PM EST
Nautical Twilight 5:51 AM EST 6:22 PM EST
Astronomical Twilight 5:19 AM EST 6:55 PM EST
Moon 7:13 AM EST (2/11) 7:17 PM EST (2/11)
Length of Visible Light 11h 26m
Length of Day
10h 29m
Waxing Crescent, 3% of the Moon is Illuminated
Feb 11
Waxing Crescent
Feb 17
First Quarter
Feb 25
Full
Mar 4
Last Quarter
Mar 11
New

Hourly Weather History & Observations

Time (EST) Temp. Windchill Dew Point Humidity Pressure Visibility Wind Dir Wind Speed Gust Speed Precip Events Conditions
12:15 AM 26.6 °F 21.2 °F 8.6 °F 47% 30.32 in 10.0 mi SSW 4.6 mph - N/A   Clear
12:35 AM 24.8 °F 17.9 °F 10.4 °F 54% 30.31 in 10.0 mi South 5.8 mph - N/A   Scattered Clouds
12:55 AM 26.6 °F 20.0 °F 12.2 °F 55% 30.30 in 10.0 mi South 5.8 mph - N/A   Scattered Clouds
1:15 AM 26.6 °F 21.2 °F 14.0 °F 59% 30.29 in 10.0 mi SSW 4.6 mph - N/A   Partly Cloudy
1:35 AM 26.6 °F - 15.8 °F 64% 30.29 in 10.0 mi Calm Calm - N/A   Clear
1:55 AM 26.6 °F 20.0 °F 17.6 °F 69% 30.27 in 10.0 mi SSE 5.8 mph - N/A   Clear
2:15 AM 28.4 °F 23.3 °F 19.4 °F 69% 30.27 in 10.0 mi South 4.6 mph - N/A   Scattered Clouds
2:35 AM 28.4 °F 22.2 °F 19.4 °F 69% 30.27 in 10.0 mi South 5.8 mph - N/A   Mostly Cloudy
2:55 AM 28.4 °F 22.2 °F 19.4 °F 69% 30.25 in 10.0 mi South 5.8 mph - N/A   Mostly Cloudy
3:15 AM 28.4 °F 22.2 °F 19.4 °F 69% 30.24 in 10.0 mi SSE 5.8 mph - N/A   Overcast
3:35 AM 28.4 °F 22.2 °F 19.4 °F 69% 30.22 in 10.0 mi SSE 5.8 mph - N/A   Mostly Cloudy
3:55 AM 28.4 °F 20.4 °F 21.2 °F 74% 30.21 in 10.0 mi South 8.1 mph - N/A   Mostly Cloudy
4:15 AM 28.4 °F 23.3 °F 21.2 °F 74% 30.22 in 10.0 mi South 4.6 mph - N/A   Overcast
4:35 AM 30.2 °F 25.4 °F 23.0 °F 75% 30.22 in 10.0 mi South 4.6 mph - N/A   Overcast
4:55 AM 30.2 °F 22.6 °F 23.0 °F 75% 30.21 in 10.0 mi South 8.1 mph - N/A   Overcast
5:15 AM 30.2 °F 25.4 °F 24.8 °F 80% 30.20 in 10.0 mi South 4.6 mph - N/A   Overcast
5:35 AM 30.2 °F 24.3 °F 24.8 °F 80% 30.18 in 9.0 mi SE 5.8 mph - N/A   Overcast
5:50 AM 30.2 °F 25.4 °F 24.8 °F 80% 30.17 in 10.0 mi SSE 4.6 mph - N/A   Overcast
5:55 AM 30.2 °F 25.4 °F 24.8 °F 80% 30.17 in 10.0 mi SSE 4.6 mph - N/A   Overcast
6:45 AM 32.0 °F 24.8 °F 24.8 °F 75% 30.15 in 7.0 mi SSE 8.1 mph - N/A   Overcast
7:15 AM 33.8 °F 25.3 °F 26.6 °F 75% 30.13 in 7.0 mi SSE 11.5 mph - N/A   Light Ice Pellets
7:45 AM 33.8 °F 25.3 °F 28.4 °F 81% 30.10 in 7.0 mi SSE 11.5 mph - N/A Rain Light Rain
8:15 AM 33.8 °F 25.3 °F 28.4 °F 81% 30.08 in 3.0 mi South 11.5 mph - N/A Rain Light Rain
8:45 AM 33.8 °F 25.3 °F 30.2 °F 87% 30.06 in 2.0 mi South 11.5 mph - N/A Rain Light Rain
9:15 AM 35.6 °F 28.6 °F 30.2 °F 81% 30.03 in 0.8 mi South 9.2 mph - N/A Rain Light Rain
9:45 AM 37.4 °F 29.8 °F 32.0 °F 81% 30.00 in 1.0 mi SSE 11.5 mph - N/A Rain Light Rain
10:45 AM 39.2 °F 33.0 °F 35.6 °F 87% 29.97 in 0.8 mi South 9.2 mph - N/A Rain Light Rain
11:45 AM 39.2 °F 33.0 °F 35.6 °F 87% 29.93 in 0.2 mi South 9.2 mph - N/A Fog , Rain Light Rain
12:55 PM 42.8 °F 38.0 °F 39.2 °F 87% 29.85 in 0.1 mi SW 8.1 mph - N/A Fog , Rain Light Rain
1:45 PM 44.6 °F 40.2 °F 39.2 °F 81% 29.82 in 0.1 mi SSW 8.1 mph - N/A Fog Light Drizzle
2:45 PM 44.6 °F 42.2 °F 41.0 °F 87% 29.79 in 0.1 mi WSW 4.6 mph - N/A Fog Light Drizzle
3:45 PM 44.6 °F 42.2 °F 41.0 °F 87% 29.75 in 0.2 mi WSW 4.6 mph - N/A Fog Light Drizzle
4:45 PM 42.8 °F - 39.2 °F 87% 29.72 in 0.1 mi Calm Calm - N/A Fog Light Drizzle
5:45 PM 42.8 °F 40.1 °F 39.2 °F 87% 29.71 in 0.5 mi WSW 4.6 mph - N/A Fog Light Drizzle
6:45 PM 42.8 °F 41.1 °F 39.2 °F 87% 29.70 in 0.5 mi West 3.5 mph - N/A Fog Fog
7:45 PM 42.8 °F 40.1 °F 39.2 °F 87% 29.68 in 0.2 mi West 4.6 mph - N/A Fog Fog
8:55 PM 41.0 °F 39.0 °F 37.4 °F 87% 29.67 in 0.2 mi West 3.5 mph - N/A   Overcast
9:15 PM 42.8 °F 38.6 °F 37.4 °F 81% 29.69 in 0.5 mi WNW 6.9 mph - N/A   Overcast
9:35 PM 41.0 °F 38.0 °F 37.4 °F 87% 29.68 in 0.5 mi West 4.6 mph - N/A   Overcast
9:55 PM 41.0 °F 36.4 °F 37.4 °F 87% 29.66 in 0.8 mi West 6.9 mph - N/A   Overcast
10:15 PM 41.0 °F 37.1 °F 37.4 °F 87% 29.66 in 0.2 mi WSW 5.8 mph - N/A   Overcast
10:35 PM 41.0 °F 36.4 °F 37.4 °F 87% 29.66 in 1.8 mi West 6.9 mph - N/A   Overcast
11:15 PM 39.2 °F 34.2 °F 37.4 °F 93% 29.68 in 2.5 mi West 6.9 mph - N/A   Overcast
11:35 PM 39.2 °F 34.2 °F 37.4 °F 93% 29.69 in 3.0 mi WNW 6.9 mph - N/A   Overcast
11:55 PM 41.0 °F 35.8 °F 37.4 °F 87% 29.69 in 10.0 mi NW 8.1 mph - N/A   Overcast